Overview Statistics Trail Chart Weather Telemetry Raw packets
 

This is the latest recevied weather packets stored in our database for station/object KC1TEM-13. If no packets are shown the sender has not sent any weather packets the latest 10 day(s).

<< 34 35 36 37 38 39 40 >>
Time Temp. Humidity Pressure Rain* Wind** Luminosity Snow
1788385131 18.89° C 86% 1022.1 hPa 0 mm - 57 W/m² -
1788384828 19.44° C 86% 1021.8 hPa 0 mm - 64 W/m² -
1788384526 19.44° C 86% 1022 hPa 0 mm - 82 W/m² -
1788384223 19.44° C 86% 1021.9 hPa 0 mm - 86 W/m² -
1788383919 20° C 85% 1021.9 hPa 0 mm - 102 W/m² -
1788383614 20° C 84% 1021.8 hPa 0 mm - 160 W/m² -
1788383309 20° C 82% 1021.8 hPa 0 mm - 156 W/m² -
1788383009 20.56° C 82% 1022 hPa 0 mm - 121 W/m² -
1788382707 20.56° C 81% 1022 hPa 0 mm - 212 W/m² -
1788382402 20.56° C 82% 1021.6 hPa 0 mm - 278 W/m² -
1788382098 20.56° C 82% 1021.8 hPa 0 mm - 277 W/m² -
1788381792 20.56° C 82% 1021.8 hPa 0 mm - 340 W/m² -
1788381488 20° C 82% 1022 hPa 0 mm - 268 W/m² -
1788381182 20° C 83% 1022.2 hPa 0 mm - 192 W/m² -
1788380877 20° C 84% 1022.1 hPa 0 mm - 178 W/m² -
1788380574 20.56° C 81% 1022.3 hPa 0 mm - 185 W/m² -
1788380270 20° C 81% 1022.5 hPa 0 mm - 195 W/m² -
1788379969 20° C 80% 1022.4 hPa 0 mm - 176 W/m² -
1788379664 20° C 81% 1022.3 hPa 0 mm - 200 W/m² -
1788379360 20° C 84% 1022.4 hPa 0 mm - 196 W/m² -
1788379055 20° C 83% 1022.6 hPa 0 mm - 188 W/m² -
1788378754 20° C 82% 1022.7 hPa 0 mm - 189 W/m² -
1788378454 20° C 81% 1022.5 hPa 0 mm - 190 W/m² -
1788378149 20° C 80% 1022.7 hPa 0 mm - 192 W/m² -
1788377845 20.56° C 78% 1022.9 hPa 0 mm - 203 W/m² -

* Rain latest hour (hover to see other rain measurements)
** Current wind speed in m/s (hover to see current wind gust speed)